QPF
0.00 0.00 0.00 0.00 0.01 0.03 0.06 0.05 0.03 0.03 0.04 0.04 0.04 0.04 0.05 0.06 0.05 0.05 0.04 0.06 0.08 0.07 0.07 0.05 0.07 0.08 0.09 0.08 0.07 0.07 0.08 0.08 0.07 0.08 0.08 0.05 0.03 0.03 0.04 0.03 0.04 0.04 0.05
0.00 0.00 0.01 0.01 0.01 0.02 0.02 0.02 0.02 0.03 0.04 0.04 0.06 0.06 0.06 0.05 0.04 0.03 0.04 0.05 0.06 0.07 0.06 0.08 0.09 0.08 0.08 0.08 0.08 0.09 0.09 0.07 0.07 0.08 0.09 0.07 0.06 0.05 0.03 0.03 0.04 0.05 0.05
0.00 0.00 0.01 0.01 0.02 0.02 0.02 0.02 0.02 0.01 0.02 0.02 0.04 0.05 0.07 0.06 0.05 0.05 0.06 0.05 0.05 0.06 0.06 0.07 0.09 0.08 0.07 0.08 0.09 0.09 0.09 0.09 0.07 0.06 0.08 0.09 0.09 0.06 0.05 0.03 0.04 0.04 0.06
0.00 0.00 0.01 0.01 0.01 0.02 0.02 0.01 0.02 0.02 0.02 0.02 0.02 0.03 0.05 0.06 0.06 0.04 0.04 0.05 0.05 0.06 0.06 0.07 0.08 0.08 0.06 0.07 0.06 0.07 0.08 0.09 0.09 0.08 0.07 0.07 0.08 0.09 0.07 0.06 0.05 0.04 0.08
0.00 0.00 0.01 0.01 0.02 0.02 0.02 0.02 0.03 0.03 0.03 0.02 0.03 0.04 0.04 0.05 0.05 0.03 0.04 0.05 0.05 0.05 0.04 0.07 0.08 0.06 0.06 0.07 0.07 0.08 0.07 0.07 0.08 0.08 0.08 0.07 0.09 0.09 0.09 0.09 0.09 0.07 0.08
0.00 0.01 0.02 0.02 0.02 0.02 0.02 0.02 0.02 0.03 0.03 0.04 0.04 0.06 0.07 0.07 0.06 0.05 0.05 0.05 0.05 0.05 0.05 0.06 0.08 0.06 0.05 0.07 0.08 0.07 0.08 0.07 0.07 0.08 0.08 0.10 0.08 0.08 0.09 0.09 0.09 0.09 0.09
0.01 0.01 0.02 0.02 0.02 0.01 0.01 0.01 0.01 0.02 0.03 0.05 0.07 0.08 0.08 0.06 0.04 0.04 0.05 0.06 0.06 0.06 0.06 0.07 0.09 0.06 0.05 0.05 0.07 0.10 0.14 0.10 0.07 0.07 0.08 0.07 0.07 0.08 0.08 0.07 0.07 0.07 0.07
0.01 0.01 0.01 0.01 0.01 0.00 0.00 0.01 0.01 0.01 0.03 0.04 0.06 0.08 0.06 0.04 0.03 0.03 0.05 0.05 0.05 0.04 0.06 0.06 0.08 0.06 0.04 0.04 0.06 0.06 0.07 0.07 0.05 0.04 0.06 0.06 0.06 0.07 0.08 0.08 0.09 0.09 0.08
0.01 0.01 0.01 0.00 0.00 0.00 0.00 0.00 0.01 0.01 0.02 0.03 0.04 0.05 0.04 0.04 0.04 0.05 0.06 0.05 0.05 0.04 0.05 0.05 0.05 0.04 0.04 0.04 0.05 0.05 0.04 0.04 0.04 0.03 0.04 0.05 0.06 0.08 0.07 0.07 0.08 0.08 0.07
0.00 0.00 0.00 0.00 0.00 0.00 0.00 0.00 0.01 0.03 0.04 0.04 0.04 0.03 0.02 0.03 0.04 0.04 0.04 0.04 0.05 0.05 0.05 0.05 0.04 0.04 0.03 0.04 0.04 0.04 0.04 0.04 0.04 0.06 0.07 0.08 0.09 0.09 0.06 0.06 0.07 0.07 0.08
0.00 0.00 0.00 0.00 0.00 0.00 0.00 0.00 0.02 0.03 0.02 0.02 0.02 0.02 0.02 0.03 0.03 0.03 0.04 0.03 0.03 0.03 0.03 0.03 0.03 0.04 0.04 0.04 0.04 0.03 0.04 0.05 0.08 0.08 0.07 0.07 0.07 0.07 0.07 0.07 0.09 0.10 0.10
0.00 0.01 0.01 0.00 0.00 0.00 0.00 0.00 0.00 0.01 0.01 0.01 0.02 0.02 0.02 0.02 0.03 0.02 0.03 0.02 0.02 0.02 0.02 0.03 0.03 0.03 0.03 0.03 0.03 0.03 0.02 0.03 0.06 0.06 0.06 0.05 0.05 0.05 0.06 0.08 0.10 0.11 0.12
0.01 0.01 0.01 0.01 0.00 0.01 0.00 0.01 0.01 0.01 0.01 0.01 0.01 0.02 0.02 0.02 0.03 0.03 0.03 0.02 0.02 0.02 0.02 0.02 0.02 0.02 0.03 0.04 0.03 0.02 0.01 0.02 0.03 0.04 0.06 0.05 0.05 0.05 0.06 0.07 0.09 0.11 0.11
0.01 0.01 0.01 0.01 0.01 0.01 0.01 0.02 0.02 0.02 0.01 0.01 0.02 0.03 0.04 0.06 0.05 0.03 0.03 0.03 0.03 0.02 0.02 0.01 0.02 0.02 0.03 0.04 0.03 0.02 0.02 0.03 0.03 0.05 0.06 0.04 0.05 0.06 0.07 0.06 0.08 0.10 0.10
0.01 0.01 0.01 0.01 0.01 0.01 0.01 0.01 0.01 0.01 0.01 0.02 0.03 0.03 0.02 0.03 0.05 0.04 0.04 0.03 0.03 0.03 0.02 0.03 0.02 0.03 0.03 0.04 0.04 0.02 0.03 0.04 0.04 0.05 0.04 0.03 0.03 0.04 0.06 0.06 0.08 0.10 0.10
0.01 0.01 0.02 0.02 0.02 0.02 0.02 0.02 0.03 0.03 0.02 0.02 0.03 0.03 0.05 0.07 0.07 0.04 0.03 0.03 0.04 0.03 0.03 0.03 0.03 0.04 0.03 0.04 0.04 0.03 0.03 0.04 0.06 0.06 0.05 0.03 0.03 0.03 0.04 0.03 0.03 0.05 0.05
0.01 0.01 0.01 0.02 0.02 0.02 0.03 0.02 0.04 0.04 0.02 0.02 0.02 0.03 0.03 0.02 0.02 0.02 0.03 0.04 0.04 0.03 0.02 0.02 0.02 0.03 0.04 0.05 0.04 0.03 0.04 0.05 0.06 0.06 0.06 0.04 0.03 0.02 0.01 0.02 0.01 0.02 0.02
0.01 0.01 0.01 0.02 0.03 0.02 0.02 0.01 0.02 0.01 0.01 0.02 0.02 0.02 0.03 0.03 0.03 0.03 0.03 0.02 0.02 0.02 0.02 0.02 0.02 0.02 0.05 0.06 0.04 0.04 0.04 0.06 0.07 0.07 0.06 0.06 0.04 0.02 0.02 0.02 0.03 0.03 0.03
0.01 0.01 0.01 0.01 0.01 0.02 0.02 0.01 0.01 0.01 0.01 0.02 0.02 0.02 0.03 0.02 0.02 0.02 0.02 0.02 0.02 0.02 0.02 0.02 0.02 0.02 0.04 0.05 0.04 0.04 0.04 0.04 0.04 0.04 0.05 0.06 0.05 0.04 0.03 0.04 0.05 0.05 0.04
0.01 0.01 0.00 0.01 0.01 0.02 0.02 0.02 0.01 0.02 0.03 0.03 0.02 0.03 0.04 0.03 0.02 0.02 0.02 0.02 0.02 0.03 0.03 0.03 0.03 0.03 0.03 0.03 0.04 0.03 0.02 0.02 0.03 0.03 0.03 0.03 0.04 0.06 0.06 0.05 0.07 0.05 0.05
0.02 0.01 0.01 0.02 0.02 0.02 0.02 0.03 0.02 0.02 0.03 0.02 0.03 0.03 0.03 0.03 0.02 0.02 0.02 0.01 0.01 0.02 0.03 0.04 0.04 0.03 0.02 0.03 0.05 0.04 0.03 0.04 0.03 0.03 0.03 0.02 0.01 0.01 0.02 0.02 0.03 0.04 0.05
0.02 0.02 0.03 0.05 0.06 0.05 0.04 0.03 0.03 0.04 0.03 0.03 0.03 0.03 0.02 0.03 0.03 0.02 0.01 0.01 0.01 0.02 0.04 0.04 0.03 0.02 0.02 0.04 0.05 0.04 0.04 0.03 0.02 0.03 0.03 0.02 0.01 0.01 0.01 0.02 0.02 0.02 0.02
0.02 0.03 0.05 0.06 0.05 0.05 0.05 0.04 0.04 0.03 0.03 0.03 0.04 0.04 0.03 0.02 0.02 0.02 0.02 0.02 0.01 0.02 0.04 0.03 0.02 0.02 0.02 0.03 0.03 0.02 0.03 0.03 0.02 0.03 0.02 0.02 0.02 0.01 0.01 0.01 0.01 0.01 0.01
0.03 0.04 0.04 0.03 0.02 0.02 0.03 0.02 0.02 0.03 0.04 0.03 0.02 0.02 0.02 0.02 0.02 0.03 0.02 0.01 0.01 0.01 0.02 0.02 0.02 0.03 0.03 0.02 0.02 0.03 0.03 0.03 0.02 0.02 0.01 0.01 0.01 0.01 0.01 0.01 0.01 0.01 0.01
0.06 0.05 0.04 0.03 0.02 0.02 0.01 0.01 0.01 0.03 0.03 0.03 0.02 0.02 0.01 0.02 0.03 0.03 0.02 0.02 0.02 0.03 0.04 0.03 0.03 0.04 0.05 0.06 0.05 0.05 0.04 0.04 0.04 0.02 0.02 0.01 0.01 0.01 0.02 0.02 0.03 0.03 0.03
0.05 0.06 0.04 0.03 0.02 0.01 0.01 0.01 0.01 0.02 0.02 0.01 0.01 0.01 0.01 0.02 0.03 0.03 0.03 0.03 0.03 0.05 0.07 0.07 0.07 0.06 0.06 0.07 0.07 0.07 0.06 0.04 0.03 0.02 0.02 0.02 0.02 0.02 0.03 0.04 0.04 0.05 0.06
MSLP
1009.77 1010.22 1010.71 1011.24 1011.77 1012.29 1012.78 1013.24 1013.64 1013.99 1014.28 1014.51 1014.68 1014.80 1014.88 1014.92 1014.94 1014.95 1014.96 1014.98 1015.01 1015.07 1015.16 1015.30 1015.47 1015.69 1015.95 1016.22 1016.50 1016.77 1017.01 1017.19 1017.30 1017.35 1017.33 1017.26 1017.15 1017.02 1016.89 1016.79 1016.73 1016.71 1016.74
1009.26 1009.72 1010.26 1010.82 1011.37 1011.91 1012.41 1012.87 1013.29 1013.66 1013.99 1014.27 1014.49 1014.66 1014.76 1014.82 1014.82 1014.80 1014.77 1014.74 1014.74 1014.78 1014.88 1015.03 1015.24 1015.49 1015.77 1016.06 1016.34 1016.60 1016.81 1016.98 1017.09 1017.14 1017.14 1017.10 1017.02 1016.91 1016.79 1016.67 1016.56 1016.46 1016.40
1008.75 1009.23 1009.79 1010.38 1010.95 1011.49 1011.98 1012.44 1012.87 1013.26 1013.61 1013.93 1014.20 1014.41 1014.55 1014.61 1014.62 1014.58 1014.53 1014.47 1014.46 1014.51 1014.61 1014.79 1015.02 1015.30 1015.59 1015.87 1016.14 1016.36 1016.54 1016.68 1016.78 1016.85 1016.89 1016.90 1016.88 1016.83 1016.75 1016.64 1016.51 1016.36 1016.22
1008.28 1008.78 1009.36 1009.96 1010.53 1011.06 1011.54 1011.99 1012.41 1012.80 1013.18 1013.53 1013.84 1014.08 1014.25 1014.34 1014.35 1014.31 1014.25 1014.19 1014.17 1014.22 1014.35 1014.55 1014.80 1015.09 1015.38 1015.65 1015.89 1016.07 1016.22 1016.34 1016.43 1016.52 1016.60 1016.68 1016.74 1016.78 1016.77 1016.70 1016.57 1016.40 1016.19
1007.90 1008.41 1008.99 1009.59 1010.16 1010.67 1011.14 1011.56 1011.95 1012.34 1012.73 1013.10 1013.43 1013.71 1013.91 1014.02 1014.04 1014.00 1013.93 1013.87 1013.86 1013.91 1014.05 1014.27 1014.53 1014.83 1015.11 1015.37 1015.58 1015.73 1015.85 1015.95 1016.05 1016.16 1016.30 1016.46 1016.61 1016.74 1016.81 1016.80 1016.70 1016.52 1016.28
1007.67 1008.17 1008.76 1009.34 1009.89 1010.38 1010.81 1011.20 1011.57 1011.95 1012.33 1012.70 1013.05 1013.35 1013.56 1013.68 1013.71 1013.66 1013.59 1013.52 1013.49 1013.54 1013.68 1013.90 1014.17 1014.47 1014.75 1015.00 1015.19 1015.33 1015.44 1015.54 1015.65 1015.81 1016.00 1016.23 1016.47 1016.68 1016.83 1016.88 1016.82 1016.65 1016.40
1007.64 1008.14 1008.70 1009.27 1009.79 1010.25 1010.64 1010.99 1011.33 1011.67 1012.03 1012.40 1012.75 1013.04 1013.26 1013.37 1013.39 1013.32 1013.22 1013.12 1013.07 1013.10 1013.22 1013.43 1013.70 1013.99 1014.28 1014.53 1014.72 1014.87 1014.99 1015.11 1015.25 1015.44 1015.69 1015.97 1016.28 1016.55 1016.76 1016.87 1016.85 1016.71 1016.47
1007.84 1008.32 1008.87 1009.42 1009.91 1010.32 1010.66 1010.97 1011.26 1011.57 1011.90 1012.24 1012.57 1012.85 1013.04 1013.13 1013.12 1013.02 1012.87 1012.73 1012.63 1012.61 1012.70 1012.88 1013.13 1013.42 1013.71 1013.98 1014.20 1014.38 1014.53 1014.68 1014.86 1015.09 1015.36 1015.69 1016.03 1016.34 1016.59 1016.73 1016.75 1016.65 1016.45
1008.26 1008.73 1009.27 1009.79 1010.24 1010.61 1010.91 1011.17 1011.41 1011.68 1011.97 1012.27 1012.56 1012.80 1012.96 1013.01 1012.95 1012.80 1012.59 1012.39 1012.22 1012.15 1012.17 1012.31 1012.54 1012.82 1013.12 1013.41 1013.67 1013.90 1014.09 1014.29 1014.51 1014.76 1015.06 1015.39 1015.73 1016.04 1016.30 1016.46 1016.51 1016.46 1016.31
1008.85 1009.33 1009.85 1010.35 1010.77 1011.11 1011.37 1011.58 1011.78 1011.99 1012.23 1012.49 1012.74 1012.94 1013.05 1013.05 1012.93 1012.72 1012.45 1012.18 1011.94 1011.79 1011.76 1011.85 1012.05 1012.32 1012.62 1012.94 1013.24 1013.52 1013.76 1014.00 1014.25 1014.52 1014.81 1015.12 1015.43 1015.72 1015.95 1016.10 1016.17 1016.16 1016.09
1009.53 1010.02 1010.55 1011.03 1011.43 1011.74 1011.97 1012.15 1012.31 1012.48 1012.68 1012.89 1013.09 1013.24 1013.30 1013.26 1013.10 1012.84 1012.52 1012.18 1011.89 1011.68 1011.59 1011.63 1011.78 1012.03 1012.34 1012.68 1013.02 1013.33 1013.62 1013.90 1014.16 1014.42 1014.69 1014.96 1015.21 1015.44 1015.62 1015.75 1015.82 1015.85 1015.85
1010.17 1010.69 1011.23 1011.72 1012.12 1012.42 1012.64 1012.79 1012.93 1013.07 1013.23 1013.40 1013.56 1013.67 1013.70 1013.63 1013.44 1013.16 1012.82 1012.46 1012.13 1011.88 1011.75 1011.74 1011.86 1012.09 1012.39 1012.72 1013.08 1013.41 1013.73 1014.02 1014.28 1014.53 1014.76 1014.97 1015.15 1015.31 1015.43 1015.52 1015.59 1015.64 1015.71
1010.66 1011.23 1011.79 1012.30 1012.72 1013.04 1013.27 1013.43 1013.56 1013.68 1013.82 1013.96 1014.09 1014.17 1014.19 1014.11 1013.94 1013.67 1013.34 1012.99 1012.67 1012.42 1012.27 1012.24 1012.33 1012.52 1012.80 1013.12 1013.47 1013.80 1014.12 1014.41 1014.66 1014.87 1015.05 1015.20 1015.32 1015.41 1015.47 1015.52 1015.57 1015.64 1015.75
1010.94 1011.55 1012.16 1012.71 1013.17 1013.53 1013.79 1013.97 1014.12 1014.25 1014.37 1014.50 1014.61 1014.70 1014.72 1014.66 1014.53 1014.31 1014.04 1013.75 1013.48 1013.26 1013.12 1013.09 1013.16 1013.32 1013.56 1013.85 1014.16 1014.48 1014.78 1015.04 1015.27 1015.45 1015.59 1015.68 1015.74 1015.77 1015.78 1015.79 1015.83 1015.90 1016.03
1010.97 1011.62 1012.28 1012.89 1013.41 1013.83 1014.15 1014.39 1014.57 1014.71 1014.85 1014.97 1015.09 1015.17 1015.22 1015.21 1015.14 1015.01 1014.83 1014.64 1014.45 1014.29 1014.20 1014.19 1014.25 1014.39 1014.59 1014.83 1015.10 1015.37 1015.63 1015.87 1016.07 1016.22 1016.33 1016.39 1016.42 1016.41 1016.39 1016.37 1016.38 1016.45 1016.59
1010.78 1011.48 1012.19 1012.86 1013.46 1013.96 1014.36 1014.67 1014.90 1015.08 1015.22 1015.36 1015.48 1015.58 1015.66 1015.70 1015.71 1015.67 1015.62 1015.54 1015.46 1015.41 1015.38 1015.40 1015.47 1015.58 1015.74 1015.93 1016.15 1016.37 1016.59 1016.79 1016.97 1017.11 1017.22 1017.27 1017.29 1017.27 1017.23 1017.21 1017.20 1017.26 1017.38
1010.46 1011.18 1011.95 1012.70 1013.38 1013.97 1014.46 1014.84 1015.14 1015.36 1015.53 1015.67 1015.79 1015.90 1016.01 1016.10 1016.18 1016.26 1016.31 1016.36 1016.40 1016.45 1016.50 1016.57 1016.65 1016.75 1016.88 1017.02 1017.19 1017.37 1017.55 1017.74 1017.91 1018.06 1018.17 1018.25 1018.28 1018.28 1018.26 1018.22 1018.22 1018.24 1018.33
1010.11 1010.86 1011.67 1012.48 1013.25 1013.94 1014.52 1014.99 1015.34 1015.60 1015.80 1015.94 1016.06 1016.17 1016.29 1016.42 1016.56 1016.71 1016.87 1017.03 1017.18 1017.32 1017.45 1017.57 1017.68 1017.78 1017.88 1017.99 1018.12 1018.27 1018.44 1018.62 1018.80 1018.98 1019.13 1019.25 1019.32 1019.36 1019.36 1019.34 1019.32 1019.33 1019.38
1009.85 1010.61 1011.46 1012.33 1013.17 1013.94 1014.61 1015.15 1015.57 1015.87 1016.08 1016.22 1016.33 1016.43 1016.54 1016.68 1016.85 1017.05 1017.28 1017.52 1017.76 1017.99 1018.19 1018.35 1018.49 1018.60 1018.70 1018.80 1018.91 1019.05 1019.22 1019.41 1019.62 1019.84 1020.04 1020.22 1020.34 1020.42 1020.46 1020.45 1020.43 1020.42 1020.43
1009.77 1010.53 1011.39 1012.29 1013.19 1014.03 1014.77 1015.38 1015.84 1016.18 1016.40 1016.54 1016.63 1016.71 1016.80 1016.92 1017.10 1017.32 1017.59 1017.88 1018.18 1018.47 1018.72 1018.94 1019.11 1019.24 1019.35 1019.46 1019.58 1019.72 1019.90 1020.12 1020.37 1020.63 1020.89 1021.12 1021.30 1021.42 1021.49 1021.50 1021.47 1021.44 1021.41
1009.90 1010.64 1011.49 1012.42 1013.34 1014.22 1015.01 1015.66 1016.17 1016.53 1016.77 1016.90 1016.98 1017.03 1017.09 1017.19 1017.35 1017.58 1017.85 1018.17 1018.51 1018.83 1019.13 1019.39 1019.60 1019.77 1019.90 1020.03 1020.17 1020.33 1020.54 1020.79 1021.07 1021.38 1021.67 1021.95 1022.17 1022.32 1022.41 1022.42 1022.40 1022.34 1022.28
1010.22 1010.93 1011.77 1012.67 1013.60 1014.49 1015.29 1015.97 1016.51 1016.89 1017.14 1017.28 1017.35 1017.39 1017.43 1017.51 1017.65 1017.86 1018.14 1018.46 1018.81 1019.17 1019.50 1019.80 1020.05 1020.26 1020.43 1020.59 1020.76 1020.96 1021.18 1021.46 1021.77 1022.09 1022.41 1022.70 1022.93 1023.10 1023.19 1023.21 1023.16 1023.09 1023.00
1010.69 1011.35 1012.14 1013.00 1013.90 1014.76 1015.56 1016.25 1016.79 1017.20 1017.47 1017.63 1017.71 1017.75 1017.79 1017.86 1017.99 1018.20 1018.47 1018.80 1019.16 1019.54 1019.91 1020.24 1020.54 1020.79 1021.01 1021.21 1021.41 1021.62 1021.87 1022.15 1022.45 1022.77 1023.08 1023.36 1023.59 1023.74 1023.82 1023.83 1023.77 1023.68 1023.57
1011.21 1011.81 1012.53 1013.33 1014.16 1014.98 1015.75 1016.42 1016.97 1017.40 1017.70 1017.89 1018.00 1018.07 1018.12 1018.22 1018.36 1018.57 1018.85 1019.19 1019.58 1019.98 1020.39 1020.76 1021.10 1021.40 1021.66 1021.89 1022.11 1022.34 1022.58 1022.84 1023.12 1023.41 1023.68 1023.92 1024.11 1024.24 1024.30 1024.29 1024.22 1024.12 1024.01
1011.69 1012.23 1012.87 1013.58 1014.33 1015.09 1015.80 1016.45 1017.00 1017.44 1017.77 1018.00 1018.16 1018.28 1018.40 1018.53 1018.71 1018.95 1019.26 1019.62 1020.04 1020.47 1020.91 1021.33 1021.72 1022.05 1022.35 1022.61 1022.84 1023.06 1023.28 1023.50 1023.72 1023.95 1024.16 1024.34 1024.49 1024.58 1024.61 1024.59 1024.53 1024.44 1024.33
1012.07 1012.54 1013.09 1013.71 1014.37 1015.04 1015.70 1016.31 1016.84 1017.30 1017.66 1017.95 1018.18 1018.36 1018.54 1018.74 1018.97 1019.26 1019.61 1020.02 1020.47 1020.95 1021.43 1021.89 1022.30 1022.68 1023.00 1023.27 1023.50 1023.70 1023.87 1024.04 1024.19 1024.35 1024.49 1024.61 1024.70 1024.77 1024.79 1024.77 1024.72 1024.65 1024.57
Thickness
5821 5818 5813 5809 5803 5798 5792 5787 5783 5779 5774 5771 5768 5765 5763 5762 5761 5760 5756 5754 5753 5751 5750 5751 5748 5748 5748 5747 5748 5747 5747 5747 5748 5747 5746 5749 5750 5749 5748 5747 5747 5745 5744
5820 5817 5814 5809 5804 5799 5794 5789 5785 5781 5777 5774 5770 5768 5766 5765 5764 5762 5758 5755 5754 5752 5752 5750 5750 5749 5747 5746 5747 5746 5746 5748 5748 5746 5743 5741 5744 5745 5750 5748 5746 5746 5745
5822 5818 5814 5810 5807 5802 5798 5794 5789 5784 5780 5777 5774 5771 5767 5765 5764 5761 5760 5758 5756 5754 5753 5752 5750 5749 5750 5749 5747 5747 5746 5745 5747 5749 5745 5740 5737 5743 5748 5747 5746 5745 5744
5828 5824 5818 5813 5809 5806 5803 5797 5791 5787 5783 5779 5776 5772 5767 5765 5765 5763 5763 5761 5758 5756 5754 5753 5751 5750 5751 5749 5749 5750 5748 5746 5745 5747 5747 5746 5745 5739 5739 5744 5746 5745 5744
5831 5827 5823 5818 5814 5811 5805 5799 5794 5789 5786 5782 5778 5773 5771 5769 5769 5766 5763 5760 5760 5758 5757 5755 5753 5752 5752 5751 5750 5749 5748 5749 5747 5746 5746 5745 5744 5743 5738 5735 5739 5742 5745
5832 5829 5826 5822 5817 5813 5807 5802 5795 5790 5787 5783 5779 5774 5771 5769 5766 5764 5763 5762 5762 5760 5759 5757 5754 5753 5753 5751 5750 5749 5749 5749 5748 5747 5747 5744 5743 5742 5741 5737 5737 5737 5742
5831 5827 5823 5820 5816 5811 5806 5802 5796 5790 5787 5783 5780 5777 5773 5770 5766 5764 5764 5763 5763 5762 5760 5759 5755 5754 5753 5752 5751 5750 5750 5749 5747 5747 5747 5748 5746 5746 5743 5739 5738 5738 5741
5831 5827 5825 5821 5817 5812 5807 5802 5797 5792 5788 5784 5781 5778 5775 5773 5771 5768 5768 5766 5765 5765 5763 5760 5757 5755 5754 5754 5752 5751 5750 5749 5748 5748 5747 5747 5748 5748 5745 5742 5738 5735 5737
5828 5826 5825 5822 5818 5813 5808 5803 5798 5792 5788 5785 5782 5779 5776 5774 5773 5770 5768 5768 5766 5766 5764 5761 5759 5757 5755 5754 5752 5751 5750 5749 5749 5749 5748 5746 5748 5748 5746 5744 5741 5735 5731
5825 5824 5823 5820 5817 5814 5809 5805 5799 5793 5790 5786 5783 5781 5777 5775 5772 5771 5768 5767 5766 5765 5763 5761 5759 5757 5756 5754 5752 5751 5750 5748 5748 5747 5745 5744 5747 5746 5745 5744 5742 5740 5735
5821 5821 5819 5817 5815 5813 5809 5803 5799 5794 5790 5787 5783 5780 5777 5775 5773 5770 5768 5767 5766 5764 5762 5760 5759 5757 5755 5754 5751 5751 5749 5748 5746 5745 5744 5742 5742 5743 5743 5742 5741 5738 5735
5818 5817 5815 5813 5810 5808 5805 5801 5798 5794 5790 5787 5783 5780 5777 5775 5772 5770 5768 5767 5765 5763 5762 5760 5758 5757 5755 5753 5750 5749 5748 5746 5744 5743 5741 5740 5740 5739 5739 5739 5737 5736 5733
5811 5811 5809 5806 5804 5803 5800 5798 5795 5792 5790 5786 5782 5779 5776 5773 5770 5769 5767 5765 5764 5762 5761 5759 5757 5755 5753 5751 5749 5748 5746 5744 5742 5740 5738 5738 5737 5736 5736 5735 5734 5734 5733
5803 5803 5800 5800 5799 5798 5796 5794 5791 5790 5787 5783 5780 5777 5774 5771 5769 5767 5765 5763 5762 5760 5758 5756 5754 5752 5751 5749 5748 5746 5744 5741 5739 5737 5736 5735 5734 5733 5732 5732 5730 5729 5727
5796 5795 5794 5793 5793 5792 5790 5789 5787 5785 5783 5779 5775 5773 5771 5768 5765 5763 5762 5760 5759 5757 5755 5753 5751 5749 5748 5747 5745 5743 5741 5738 5735 5733 5732 5730 5728 5726 5726 5727 5725 5724 5722
5790 5790 5789 5787 5786 5785 5784 5783 5781 5780 5778 5774 5771 5769 5767 5765 5762 5760 5759 5756 5754 5752 5750 5748 5747 5745 5744 5741 5738 5738 5737 5734 5731 5728 5727 5726 5723 5720 5718 5716 5715 5715 5714
5785 5784 5783 5781 5780 5780 5779 5778 5777 5776 5773 5770 5767 5765 5763 5760 5758 5757 5754 5750 5748 5747 5745 5744 5743 5740 5737 5734 5733 5731 5731 5730 5727 5725 5723 5722 5720 5717 5716 5712 5710 5707 5705
5780 5779 5778 5775 5775 5775 5775 5774 5773 5770 5768 5765 5762 5760 5758 5755 5753 5751 5748 5745 5744 5742 5740 5738 5737 5735 5732 5728 5727 5725 5725 5724 5722 5720 5718 5715 5713 5711 5710 5709 5706 5703 5700
5774 5773 5772 5771 5768 5767 5767 5767 5765 5763 5760 5758 5755 5754 5752 5750 5747 5745 5743 5741 5738 5736 5735 5734 5731 5729 5725 5722 5721 5720 5721 5719 5716 5714 5711 5709 5706 5702 5701 5701 5699 5696 5692
5767 5766 5766 5764 5760 5759 5759 5758 5756 5753 5751 5750 5749 5749 5747 5744 5741 5739 5737 5735 5733 5732 5730 5728 5726 5724 5720 5716 5716 5715 5717 5714 5711 5708 5704 5700 5698 5694 5693 5694 5692 5689 5686
5758 5759 5758 5755 5752 5751 5751 5748 5746 5744 5744 5744 5743 5742 5740 5738 5735 5733 5731 5729 5728 5726 5724 5722 5720 5718 5714 5711 5709 5708 5711 5709 5706 5702 5698 5693 5688 5685 5684 5684 5683 5680 5678
5749 5750 5748 5745 5744 5744 5742 5739 5736 5736 5737 5737 5735 5733 5732 5731 5729 5726 5724 5723 5721 5719 5717 5716 5713 5711 5707 5704 5701 5699 5699 5698 5697 5694 5690 5684 5679 5677 5675 5674 5672 5671 5671
5740 5741 5739 5737 5735 5735 5733 5730 5729 5729 5729 5728 5726 5725 5724 5722 5721 5719 5717 5716 5715 5714 5713 5711 5708 5705 5702 5697 5693 5691 5689 5687 5687 5684 5678 5675 5671 5669 5667 5664 5663 5664 5664
5730 5731 5730 5727 5726 5726 5725 5724 5722 5721 5721 5719 5717 5715 5714 5713 5711 5710 5710 5709 5707 5706 5705 5703 5702 5699 5697 5693 5690 5686 5682 5678 5677 5675 5669 5666 5663 5662 5659 5657 5657 5656 5654
5721 5721 5720 5718 5718 5718 5717 5716 5714 5713 5712 5710 5709 5708 5707 5705 5702 5700 5697 5697 5694 5693 5694 5695 5695 5691 5688 5682 5679 5680 5678 5675 5672 5668 5666 5663 5660 5658 5655 5653 5650 5647 5644
5712 5711 5711 5711 5710 5709 5708 5707 5706 5705 5704 5702 5701 5701 5700 5697 5695 5692 5687 5680 5681 5679 5680 5680 5681 5679 5675 5671 5669 5667 5666 5664 5661 5661 5659 5655 5653 5650 5648 5645 5641 5638 5635